Location: Newark
(48.1500°N, 13.1167°E)
Time: 08:02:58
(UTC+00:00)

KAITUO 1B - Pass Details

Date: 30 November 2021
Orbit: 486 x 507 km, 97.4° (Epoch: 18 January)

Event Time Altitude Azimuth Distance (km) Brightness Sun altitude
Rises 04:33:26 0° 31° (NNE) 2,634 ? -19.7°
Reaches altitude 10° 04:36:27 10° 58° (ENE) 1,739 ? -19.2°
Maximum altitude 04:38:25 14° 90° (E) 1,511 ? -18.9°
Drops below altitude 10° 04:40:22 10° 122° (ESE) 1,726 ? -18.5°
Sets 04:43:20 0° 149° (SSE) 2,599 ? -18.0°
